KD8CJ Weather Reports


Display with metric or nautical units.
time (UTC)temp
F
wind
direction
speed
MPH
gust
MPH
rain 1hr
in
rain 24hr
in
rain mn
in
humidity
%
barometer
mb
20260508204520 59 278 0.0 1.0 0.00 0.00 0.00 59 1009.5
20260508203020 59 278 0.0 1.0 0.00 0.00 0.00 56 1010.0
20260508201518 59 262 0.0 2.0 0.00 0.00 0.00 59 1010.2
20260508200036 59 252 1.0 3.0 0.00 0.00 0.00 58 1010.4
20260508194520 60 239 1.0 3.0 0.00 0.00 0.00 57 1010.7
20260508193021 61 326 1.0 3.0 0.00 0.00 0.00 55 1010.8
20260508191520 59 278 1.0 2.0 0.00 0.00 0.00 59 1011.0
20260508190022 58 307 1.0 4.0 0.00 0.00 0.00 61 1011.2
20260508184527 56 248 0.0 3.0 0.00 0.00 0.00 64 1011.8
20260508183022 55 260 0.0 1.0 0.00 0.00 0.00 65 1012.1
20260508181524 54 266 0.0 1.0 0.00 0.00 0.00 67 1012.5
20260508180026 54 229 0.0 2.0 0.00 0.00 0.00 66 1012.8
20260508174525 55 294 0.0 1.0 0.00 0.00 0.00 66 1012.6
20260508173011 55 243 1.0 3.0 0.00 0.00 0.00 64 1012.6
20260508171528 55 261 0.0 5.0 0.00 0.00 0.00 64 1012.4
20260508170016 56 273 0.0 2.0 0.00 0.00 0.00 66 1012.5
20260508164518 56 237 1.0 4.0 0.00 0.00 0.00 62 1012.6
20260508163009 57 253 0.0 3.0 0.00 0.00 0.00 59 1012.5
20260508161514 57 280 1.0 3.0 0.00 0.00 0.00 57 1012.5
20260508160020 58 273 2.0 6.0 0.00 0.00 0.00 57 1012.8
20260508154516 57 268 1.0 6.0 0.00 0.00 0.00 55 1012.9
20260508153015 58 173 1.0 6.0 0.00 0.00 0.00 54 1012.8
20260508151511 59 276 1.0 6.0 0.00 0.00 0.00 54 1012.7
20260508150020 59 275 1.0 5.0 0.00 0.00 0.00 56 1012.7
20260508144536 59 271 1.0 11.0 0.00 0.00 0.00 54 1012.7
20260508143028 59 260 0.0 4.0 0.00 0.00 0.00 57 1012.4
20260508141524 57 258 1.0 4.0 0.00 0.00 0.00 57 1012.5
20260508140009 57 265 2.0 5.0 0.00 0.00 0.00 55 1012.7
20260508134513 57 257 2.0 5.0 0.00 0.00 0.00 57 1012.8
20260508133021 56 290 1.0 8.0 0.00 0.00 0.00 58 1012.9
20260508131522 56 271 1.0 4.0 0.00 0.00 0.00 57 1013.0
20260508130025 54 296 1.0 3.0 0.00 0.00 0.00 59 1012.9
20260508124514 52 266 2.0 5.0 0.00 0.00 0.00 62 1013.0
20260508123021 50 266 1.0 3.0 0.00 0.00 0.00 66 1013.0
20260508121526 49 236 1.0 2.0 0.00 0.00 0.00 69 1013.0
20260508120023 47 247 0.0 3.0 0.00 0.00 0.00 72 1013.0
20260508114531 45 137 0.0 2.0 0.00 0.00 0.00 75 1012.9
20260508113018 43 268 0.0 1.0 0.00 0.00 0.00 80 1012.9
20260508111519 42 293 0.0 0.0 0.00 0.00 0.00 83 1012.7
20260508110023 43 294 0.0 1.0 0.00 0.00 0.00 82 1012.7
20260508104522 43 263 0.0 3.0 0.00 0.00 0.00 80 1012.4
20260508103021 43 274 0.0 1.0 0.00 0.00 0.00 82 1012.3
20260508101514 43 278 1.0 1.0 0.00 0.00 0.00 84 1012.2
20260508100018 43 265 0.0 2.0 0.00 0.00 0.00 84 1012.7
20260508094521 42 346 0.0 0.0 0.00 0.00 0.00 84 1012.4
20260508093025 43 346 0.0 0.0 0.00 0.00 0.00 84 1012.6
20260508091528 43 345 0.0 0.0 0.00 0.00 0.00 84 1013.1
20260508090033 44 346 0.0 0.0 0.00 0.00 0.00 84 1012.7
20260508084519 44 346 0.0 0.0 0.00 0.00 0.00 83 1012.5
20260508083006 45 346 0.0 0.0 0.00 0.00 0.00 80 1012.4
20260508081510 45 253 0.0 4.0 0.00 0.00 0.00 76 1012.7
20260508080012 44 176 1.0 4.0 0.00 0.00 0.00 76 1012.7
20260508074518 44 269 0.0 1.0 0.00 0.00 0.00 78 1013.1
20260508073022 44 269 0.0 1.0 0.00 0.00 0.00 80 1013.0
20260508071504 44 269 0.0 0.0 0.00 0.00 0.00 77 1013.1
20260508070009 44 269 0.0 1.0 0.00 0.00 0.00 79 1013.2
20260508064542 44 269 0.0 1.0 0.00 0.00 0.00 77 1013.0
20260508063017 44 269 0.0 1.0 0.00 0.00 0.00 74 1013.5
20260508061522 44 266 0.0 1.0 0.00 0.00 0.00 72 1013.1
20260508060004 44 289 0.0 1.0 0.00 0.00 0.00 71 1013.0
20260508054508 44 290 0.0 1.0 0.00 0.00 0.00 73 1013.1
20260508053015 42 290 0.0 0.0 0.00 0.00 0.00 78 1013.2
20260508051525 42 290 0.0 0.0 0.00 0.00 0.00 77 1013.4
20260508050032 43 290 0.0 0.0 0.00 0.00 0.00 76 1013.3
20260508044508 44 290 0.0 1.0 0.00 0.00 0.00 76 1013.2
20260508043013 44 290 0.0 0.0 0.00 0.00 0.00 75 1013.5
20260508041515 44 290 0.0 0.0 0.00 0.00 0.00 77 1013.6
20260508040025 44 290 0.0 1.0 0.00 0.00 0.00 75 1013.5
20260508034528 43 290 0.0 0.0 0.00 0.00 0.00 76 1013.4
20260508033006 43 290 0.0 0.0 0.00 0.00 0.00 76 1013.4
20260508031513 43 290 0.0 0.0 0.00 0.00 0.00 76 1013.4
20260508030020 43 352 0.0 0.0 0.00 0.00 0.00 74 1013.5
20260508024523 43 352 0.0 0.0 0.00 0.00 0.00 74 1013.3
20260508023026 42 352 0.0 0.0 0.00 0.00 0.00 73 1013.3
20260508021507 43 352 0.0 0.0 0.00 0.00 0.00 72 1013.3
20260508020015 43 352 0.0 0.0 0.00 0.00 0.00 68 1013.1
20260508014522 44 352 0.0 0.0 0.00 0.00 0.00 66 1013.2
20260508013026 45 352 0.0 0.0 0.00 0.00 0.00 65 1013.0
20260508011535 45 352 0.0 0.0 0.00 0.00 0.00 62 1012.7
20260508010020 46 352 0.0 0.0 0.00 0.00 0.00 62 1012.6
20260508004530 47 352 0.0 0.0 0.00 0.00 0.00 58 1012.7
20260508003020 48 352 0.0 0.0 0.00 0.00 0.00 56 1012.5
20260508001529 51 352 0.0 0.0 0.00 0.00 0.00 54 1012.4
20260508000026 52 251 0.0 2.0 0.00 0.00 0.00 47 1012.4
20260507234533 53 265 0.0 3.0 0.00 0.00 0.00 44 1012.2
20260507233023 54 340 0.0 3.0 0.00 0.00 0.00 45 1012.2
20260507231520 55 114 1.0 5.0 0.00 0.00 0.00 43 1012.2
20260507230023 55 226 1.0 3.0 0.00 0.00 0.00 42 1012.3
20260507224528 56 128 1.0 4.0 0.00 0.00 0.00 40 1012.4
20260507223027 58 257 1.0 7.0 0.00 0.00 0.00 41 1012.4
20260507221518 58 262 1.0 7.0 0.00 0.00 0.00 38 1012.4
20260507220024 57 274 3.0 11.0 0.00 0.00 0.00 39 1012.4
20260507214530 58 353 1.0 7.0 0.00 0.00 0.00 38 1012.3
20260507213026 58 243 1.0 5.0 0.00 0.00 0.00 44 1012.1
20260507211541 57 288 1.0 7.0 0.00 0.00 0.00 43 1012.0
20260507210022 57 247 2.0 9.0 0.00 0.00 0.00 43 1011.7